Regional Weather Roundup
Issued by NWS State College, PA

Home | Current Version | Previous Version | Text Only | Print | Product List | Glossary On
Versions: 1 2 3 4 5 6 7 8 9 10 11 12 13 14 15 16 17 18 19 20 21 22 23 24 25 26 27 28 29 30 31 32 33 34 35 36 37 38 39 40 41 42 43 44 45 46 47 48 49 50
000
ASUS41 KCTP 110810
RWRCTP

REGIONAL WEATHER ROUNDUP
NATIONAL WEATHER SERVICE STATE COLLEGE PA
400 AM EDT FRI JUL 11 2014

Note: "fair" indicates few or no clouds below 12,000 feet with no
significant weather and/or obstructions to visibility.

* = STATION THAT DOES NOT REPORT PRECIPITATION /E.G. RAIN...SNOW...ETC/
    THUNDER OR FOG.

PAZ002>004-007>009-013>016-020>023-029>032-110900-
WESTERN PENNSYLVANIA

CITY           SKY/WX    TMP DP  RH WIND       PRES   REMARKS
ERIE           CLEAR     57  52  83 CALM      30.19S
MEADVILLE      PTCLDY    57  53  86 NE3       30.20S
FRANKLIN*      MOCLDY    57  54  88 NE3       30.21S
NEW CASTLE     NOT AVBL
BEAVER COUNTY  NOT AVBL
BUTLER*        CLEAR     57  54  88 NE5       30.20S
PITTSBURGH INT PTCLDY    65  57  75 N3        30.17R
PITTSBURGH     PTCLDY    65  56  72 CALM      30.16S
INDIANA*       MOCLDY    63  59  88 CALM      30.23S
LATROBE        CLEAR     61  61 100 CALM      30.18S
WASHINGTON CO* CLEAR     55  54  94 CALM      30.17S
$$

PAZ004>006-010>012-017>019-024>028-033>037-041-042-045-046-049>053-110900-
CENTRAL PENNSYLVANIA

CITY           SKY/WX    TMP DP  RH WIND       PRES   REMARKS
BRADFORD       PTCLDY    53  51  93 CALM      30.23S
DUBOIS         CLEAR     60  57  89 E3        30.20S
CLEARFIELD     CLEAR     57  56  96 N6        30.21S
JOHNSTOWN      CLEAR     60  57  89 E3        30.21F
ALTOONA        FOG       58  58 100 CALM      30.20S VSB 1/2
STATE COLLEGE  FOG       58  58  99 CALM      30.20S VSB 1/4
WILLIAMSPORT   PTCLDY    62  57  83 CALM      30.18R
SELINSGROVE    CLEAR     63  60  90 CALM      30.18R
FT INDIANTOWN  CLEAR     63  63 100 NW2       30.16S FOG
CAPITAL CITY   CLOUDY    64  62  93 W3        30.16R
HARRISBURG     PTCLDY    67  64  90 NW7       30.15R
YORK           MOCLDY    62  61  96 CALM      30.15F FOG
$$

PAZ038>040-043-044-047-048-054-055-060>062-067>071-110900-
EASTERN PENNSYLVANIA

CITY           SKY/WX    TMP DP  RH WIND       PRES   REMARKS
SCRANTON       PTCLDY    61  55  81 CALM      30.20R
MOUNT POCONO   MOCLDY    63  55  75 NE6       30.22R
ALLENTOWN      CLEAR     66  63  90 NE3       30.16R
QUAKERTOWN*    MOSUNNY   66  64  94 NE3       30.16S
READING        CLEAR     68  64  87 N5        30.14S
LANCASTER      CLEAR     64  63  96 NW5       30.15R FOG
COATESVILLE    MOSUNNY   64  64 100 N5        30.16S FOG
POTTSTOWN      MOCLDY    66  64  93 NE3       30.16S
BLUE BELL      MOCLDY    68  64  88 CALM      30.14R
DOYLESTOWN     MOCLDY    65  64  97 N3        30.14R
WILLOW GROVE   NOT AVBL
NORTH PHILA    CLOUDY    71  62  73 N5        30.14S
PHILADELPHIA   CLOUDY    72  62  71 N3        30.13S
$$



USA.gov is the U.S. government's official web portal to all federal, state and local government web resources and services.